BREEZE-M DEB, 38922

Orbit data source: Space-Track

BREEZE-M DEB, 38922 is space debris in LEO originally from a launch on Mon, 06 Aug 2012 UTC launched from the Tyuratam Missile And Space Complex (TTMTR). Debris objects in space refer to the collection of defunct objects orbiting the Earth. Examples of debris include non-operational satellites, rocket bodies, and fragments generated from explosions, collisions, or faulty payload assembly.

Loading next visibility...
Identifier
38922, 2012-044BF
Orbit
LEO
Country
Flag of CISCIS
Related business
Manufacturer
Khrunichev
Mission
Spacecraft
Bus & Motor
BRIZ, Unknown motor
Mass
Unknown
Launch date (UTC)
2012-08-06 (14 years ago)
Launch vehicle
Unknown
Launch site
Tyuratam Missile And Space Complex (TTMTR)
Object type
Payload
Rocket body
Debris
Shape & HBR
Unknown shape, 0.5 m
Radar Cross Section
Medium (>0.1 m² and <1 m²)

Expand to show TLE details & history
Last TLE update: 2 days ago

TLE from 2 days ago
0 BREEZE-M DEB
1 38922U 12044BF  26171.41687388  .00042423  61974-5  66131-3 0  9994
2 38922  50.0133 327.9540 1401634  72.3132 302.5501 12.81059627564782
Epoch: 2026-06-20T10:00Z
TLE epoch observation values (Epoch: 2026-06-20T10:00:17.903Z)
Latitude
-0.00003°
Longitude
-90.75242°
Altitude
875.728 km
Speed
7.634 km/s
True Right ascension
21h 51m 48s
True Declination
0° 00' 00"
Sunlit
Object was in partial shadow at epoch
Visualization orbit readout
Latitude
Unknown
Longitude
Unknown
Altitude
Unknown
Speed
Unknown
Apparent Right ascension
Unknown
Apparent Declination
Unknown
Sunlit
N/A
Visualization observer readout
Local Sidereal Time
02:14:50
Azimuth
Unknown
Elevation
Unknown
Doppler factor
Unknown
Orbital elements
Apogee altitude
2,419.428 km
Perigee altitude
256.411 km
Semi-major axis
7,716.057 km
Eccentricity
0.14016
Inclination
50.0133°
RAAN
327.954°
Arg. of periapsis
72.3132°
True anomaly
287.77623°
Mean anomaly
302.5501°
Eccentric anomaly
295.28896°
Mean motion
3.20221 °/min
Orbital period
112.42 mins
BSTAR
0.00066131
Loading maneuver chart data...
Computing Atmospheric mass density...

Documentation

Showing up to 5 results
|